Time,TemperatureF,DewpointF,PressureIn,WindDirection,WindDirectionDegrees,WindSpeedMPH,WindSpeedGustMPH,Humidity,HourlyPrecipIn,Conditions,Clouds,dailyrainin,SoftwareType,DateUTC
2013-05-21 00:02:00,70.0,-99.9,-100.00,East,98,0.0,3.0,-999,-99.99,,,-99.99,,2013-05-21 06:02:00,
2013-05-21 00:12:00,70.0,-99.9,-100.00,East,98,0.0,3.0,-999,-99.99,,,-99.99,,2013-05-21 06:12:00,
2013-05-21 00:32:00,66.0,-99.9,-100.00,West,259,1.0,3.0,-999,-99.99,,,-99.99,,2013-05-21 06:32:00,
2013-05-21 00:42:00,66.0,-99.9,-100.00,West,259,1.0,3.0,-999,-99.99,,,-99.99,,2013-05-21 06:42:00,
2013-05-21 00:52:00,66.0,-99.9,-100.00,West,259,1.0,3.0,-999,-99.99,,,-99.99,,2013-05-21 06:52:00,
2013-05-21 03:00:00,62.0,-99.9,-100.00,WNW,300,3.0,4.0,-999,-99.99,,,-99.99,,2013-05-21 09:00:00,
2013-05-21 03:33:00,62.0,-99.9,-100.00,WNW,300,3.0,4.0,-999,-99.99,,,-99.99,,2013-05-21 09:33:00,
2013-05-21 03:42:00,62.0,-99.9,-100.00,WNW,300,3.0,4.0,-999,-99.99,,,-99.99,,2013-05-21 09:42:00,
2013-05-21 03:53:00,62.0,-99.9,-100.00,WNW,300,3.0,4.0,-999,-99.99,,,-99.99,,2013-05-21 09:53:00,
2013-05-21 04:22:00,61.0,-99.9,-100.00,WNW,303,3.0,5.0,-999,-99.99,,,-99.99,,2013-05-21 10:22:00,
2013-05-21 04:33:00,61.0,-99.9,-100.00,WNW,303,3.0,5.0,-999,-99.99,,,-99.99,,2013-05-21 10:33:00,
2013-05-21 06:20:00,53.0,-99.9,-100.00,ENE,75,3.0,3.0,-999,-99.99,,,-99.99,,2013-05-21 12:20:00,
2013-05-21 06:32:00,54.0,-99.9,-100.00,WSW,253,0.0,5.0,-999,-99.99,,,-99.99,,2013-05-21 12:32:00,
2013-05-21 06:42:00,54.0,-99.9,-100.00,WSW,253,0.0,5.0,-999,-99.99,,,-99.99,,2013-05-21 12:42:00,
2013-05-21 06:52:00,52.0,-99.9,-100.00,ENE,78,2.0,4.0,-999,-99.99,,,-99.99,,2013-05-21 12:52:00,
2013-05-21 07:00:00,57.0,-99.9,-100.00,NNW,336,0.0,1.0,-999,-99.99,,,-99.99,,2013-05-21 13:00:00,
2013-05-21 07:01:00,53.0,-99.9,-100.00,ENE,75,3.0,3.0,-999,-99.99,,,-99.99,,2013-05-21 13:01:00,
2013-05-21 07:12:00,53.0,-99.9,-100.00,ENE,75,3.0,3.0,-999,-99.99,,,-99.99,,2013-05-21 13:12:00,
2013-05-21 07:32:00,57.0,-99.9,-100.00,NNW,336,0.0,1.0,-999,-99.99,,,-99.99,,2013-05-21 13:32:00,
2013-05-21 07:42:00,57.0,-99.9,-100.00,NNW,336,0.0,1.0,-999,-99.99,,,-99.99,,2013-05-21 13:42:00,
2013-05-21 07:52:00,57.0,-99.9,-100.00,NNW,336,0.0,1.0,-999,-99.99,,,-99.99,,2013-05-21 13:52:00,
2013-05-21 08:10:00,62.0,-99.9,-100.00,NW,306,2.0,3.0,-999,-99.99,,,-99.99,,2013-05-21 14:10:00,
2013-05-21 08:32:00,62.0,-99.9,-100.00,WNW,292,2.0,2.0,-999,-99.99,,,-99.99,,2013-05-21 14:32:00,
2013-05-21 08:42:00,62.0,-99.9,-100.00,WNW,292,2.0,2.0,-999,-99.99,,,-99.99,,2013-05-21 14:42:00,
2013-05-21 08:52:00,62.0,-99.9,-100.00,NW,306,2.0,3.0,-999,-99.99,,,-99.99,,2013-05-21 14:52:00,
2013-05-21 09:01:00,62.0,-99.9,-100.00,NW,306,2.0,3.0,-999,-99.99,,,-99.99,,2013-05-21 15:01:00,
2013-05-21 10:32:00,70.0,-99.9,-100.00,NW,312,4.0,6.0,-999,-99.99,,,-99.99,,2013-05-21 16:32:00,
2013-05-21 10:42:00,70.0,-99.9,-100.00,NW,312,4.0,6.0,-999,-99.99,,,-99.99,,2013-05-21 16:42:00,
2013-05-21 10:53:00,70.0,-99.9,-100.00,NW,312,4.0,6.0,-999,-99.99,,,-99.99,,2013-05-21 16:53:00,
2013-05-21 12:02:00,73.0,-99.9,-100.00,WNW,285,2.0,6.0,-999,-99.99,,,-99.99,,2013-05-21 18:02:00,
2013-05-21 12:13:00,73.0,-99.9,-100.00,WNW,285,2.0,6.0,-999,-99.99,,,-99.99,,2013-05-21 18:13:00,
2013-05-21 12:22:00,71.0,-99.9,-100.00,West,275,0.0,7.0,-999,-99.99,,,-99.99,,2013-05-21 18:22:00,
2013-05-21 12:32:00,71.0,-99.9,-100.00,West,275,0.0,7.0,-999,-99.99,,,-99.99,,2013-05-21 18:32:00,
2013-05-21 13:02:00,74.0,-99.9,-100.00,WNW,284,3.0,3.0,-999,-99.99,,,-99.99,,2013-05-21 19:02:00,
2013-05-21 13:12:00,74.0,-99.9,-100.00,WNW,284,3.0,3.0,-999,-99.99,,,-99.99,,2013-05-21 19:12:00,
2013-05-21 13:22:00,74.0,-99.9,-100.00,WNW,284,3.0,3.0,-999,-99.99,,,-99.99,,2013-05-21 19:22:00,
2013-05-21 13:32:00,75.0,-99.9,-100.00,West,280,3.0,6.0,-999,-99.99,,,-99.99,,2013-05-21 19:32:00,
2013-05-21 13:42:00,75.0,-99.9,-100.00,West,280,3.0,6.0,-999,-99.99,,,-99.99,,2013-05-21 19:42:00,
2013-05-21 13:52:00,75.0,-99.9,-100.00,West,280,3.0,6.0,-999,-99.99,,,-99.99,,2013-05-21 19:52:00,
2013-05-21 14:03:00,78.0,-99.9,-100.00,SSE,147,1.0,4.0,-999,-99.99,,,-99.99,,2013-05-21 20:03:00,
2013-05-21 14:11:00,78.0,-99.9,-100.00,SSE,147,1.0,4.0,-999,-99.99,,,-99.99,,2013-05-21 20:11:00,
2013-05-21 14:22:00,79.0,-99.9,-100.00,ESE,107,4.0,6.0,-999,-99.99,,,-99.99,,2013-05-21 20:22:00,
2013-05-21 14:33:00,79.0,-99.9,-100.00,SSE,168,1.0,6.0,-999,-99.99,,,-99.99,,2013-05-21 20:33:00,
2013-05-21 14:42:00,79.0,-99.9,-100.00,SSE,168,1.0,6.0,-999,-99.99,,,-99.99,,2013-05-21 20:42:00,
2013-05-21 14:52:00,79.0,-99.9,-100.00,West,281,0.0,5.0,-999,-99.99,,,-99.99,,2013-05-21 20:52:00,
2013-05-21 15:02:00,79.0,-99.9,-100.00,West,281,0.0,5.0,-999,-99.99,,,-99.99,,2013-05-21 21:02:00,
2013-05-21 15:33:00,79.0,-99.9,-100.00,WNW,290,2.0,5.0,-999,-99.99,,,-99.99,,2013-05-21 21:33:00,
2013-05-21 15:44:00,79.0,-99.9,-100.00,WNW,290,2.0,5.0,-999,-99.99,,,-99.99,,2013-05-21 21:44:00,
2013-05-21 16:34:00,83.0,-99.9,-100.00,SSE,161,0.0,5.0,-999,-99.99,,,-99.99,,2013-05-21 22:34:00,
2013-05-21 16:40:00,83.0,-99.9,-100.00,ESE,112,1.0,4.0,-999,-99.99,,,-99.99,,2013-05-21 22:40:00,
2013-05-21 16:42:00,83.0,-99.9,-100.00,SSE,161,0.0,5.0,-999,-99.99,,,-99.99,,2013-05-21 22:42:00,
2013-05-21 17:22:00,83.0,-99.9,-100.00,ESE,112,1.0,4.0,-999,-99.99,,,-99.99,,2013-05-21 23:22:00,
2013-05-21 17:32:00,83.0,-99.9,-100.00,ESE,112,1.0,4.0,-999,-99.99,,,-99.99,,2013-05-21 23:32:00,
2013-05-21 20:22:00,81.0,-99.9,-100.00,South,185,1.0,2.0,-999,-99.99,,,-99.99,,2013-05-22 02:22:00,
2013-05-21 20:32:00,81.0,-99.9,-100.00,South,185,1.0,2.0,-999,-99.99,,,-99.99,,2013-05-22 02:32:00,
2013-05-21 20:42:00,81.0,-99.9,-100.00,South,185,1.0,2.0,-999,-99.99,,,-99.99,,2013-05-22 02:42:00,
2013-05-21 23:22:00,65.0,-99.9,-100.00,WSW,242,1.0,2.0,-999,-99.99,,,-99.99,,2013-05-22 05:22:00,
2013-05-21 23:32:00,65.0,-99.9,-100.00,WSW,242,1.0,2.0,-999,-99.99,,,-99.99,,2013-05-22 05:32:00,
2013-05-21 23:42:00,65.0,-99.9,-100.00,WSW,242,1.0,2.0,-999,-99.99,,,-99.99,,2013-05-22 05:42:00,